הכול
Liverpool Medical Airport YXLL מזג אוויר
There is no TAF data available at YXLL. Showing TAF data for YSBK (3 mi מז').
BWU Terminal Area Forecast (no data for YXLL)
| Here is the undecoded forecast: 2026/09/04 17:04 YSBK 041704Z 0418/0512 VRB03KT CAVOK BECMG 0423/0501 36014KT CAVOK FM050300 30020G35KT CAVOK FM051100 25014KT CAVOK PROB30 INTER 0506/0511 VRB30G50KT 5000 TSRA SCT100CB RMK FM042000 MOD TURB BLW 5000FT TL042300 FM042300 SEV TURB BLW 5000FT TL051100 FM051100 MOD TURB BLW 5000FT T 11 13 23 31 Q 1015 1014 1012 1007 |
There is no METAR data available at YXLL. Showing METAR data for YSBK (3 mi מז').
Recent BWU METAR history (no data for YXLL)
| Date | Time (AEST) | Flight Rules | Wind Dir. | Speed | Type | Height AGL (ft) | Visibility | Temp (°C) | Temp (°F) | Dew Point (°C) | Dew Point (°F) | Rel. Humid. | Pressure | Density Altitude | Remarks |
|---|---|---|---|---|---|---|---|---|---|---|---|---|---|---|---|
| 05-ספט | 05:00 | VFR | Calm | 10000 meters | 10° | 50° | 9° | 48° | 93% | 1015 mb | -624 ft | ||||
| 05-ספט | 04:00 | VFR | Calm | 10000 meters | 10° | 50° | 9° | 48° | 93% | 1016 mb | -653 ft | ||||
| 05-ספט | 03:00 | VFR | Calm | 10000 meters | 11° | 51° | 10° | 50° | 94% | 1016 mb | -533 ft | ||||
| 05-ספט | 02:00 | VFR | Calm | 10000 meters | 11° | 51° | 10° | 50° | 94% | 1017 mb | -563 ft | ||||
| 05-ספט | 01:00 | VFR | Calm | 10000 meters | 12° | 53° | 10° | 50° | 88% | 1018 mb | -473 ft | ||||
| 05-ספט | 00:00 | VFR | Calm | 10000 meters | 13° | 55° | 10° | 50° | 82% | 1018 mb | -353 ft | ||||
| 04-ספט | 23:00 | VFR | 320° | 2 kt | 10000 meters | 14° | 57° | 11° | 51° | 82% | 1018 mb | -233 ft | |||
| 04-ספט | 22:00 | VFR | 110° | 1 kt | 10000 meters | 15° | 59° | 10° | 50° | 72% | 1019 mb | -142 ft | |||
| 04-ספט | 21:00 | VFR | 100° | 5 kt | 10000 meters | 17° | 62° | 10° | 50° | 63% | 1019 mb | 98 ft | |||
| 04-ספט | 20:00 | VFR | 190° | 5 kt | 10000 meters | 16° | 60° | 11° | 51° | 72% | 1018 mb | 7 ft | |||
| 04-ספט | 19:00 | VFR | 110° | 4 kt | 10000 meters | 18° | 64° | 10° | 50° | 59% | 1017 mb | 277 ft | |||
| 04-ספט | 18:00 | VFR | 60° | 6 kt | 10000 meters | 20° | 68° | 9° | 48° | 49% | 1017 mb | 517 ft | |||
| 04-ספט | 17:00 | VFR | 320° | 3 kt | 10000 meters | 23° | 73° | 7° | 44° | 36% | 1016 mb | 907 ft | |||
| 04-ספט | 16:00 | VFR | 340° | 5 kt | 10000 meters | 24° | 75° | 6° | 42° | 31% | 1016 mb | 1,027 ft | |||
| 04-ספט | 15:00 | VFR | 360° | 4 kt | 10000 meters | 23° | 73° | 7° | 44° | 36% | 1016 mb | 907 ft | |||
| 04-ספט | 14:00 | VFR | 280° | 7 kt | 10000 meters | 23° | 73° | 7° | 44° | 36% | 1017 mb | 877 ft | |||
| 04-ספט | 13:00 | VFR | 310° | 8 kt | 10000 meters | 22° | 71° | 5° | 41° | 33% | 1018 mb | 727 ft | |||
| 04-ספט | 12:00 | VFR | 330° | 7 kt | 10000 meters | 21° | 69° | 3° | 37° | 30% | 1019 mb | 578 ft | |||
| 04-ספט | 11:00 | VFR | 280° | 8 kt | 10000 meters | 21° | 69° | 7° | 44° | 40% | 1021 mb | 519 ft | |||
| 04-ספט | 10:00 | VFR | 240° | 7 kt | 10000 meters | 19° | 66° | 7° | 44° | 46% | 1021 mb | 279 ft | |||
| 04-ספט | 09:00 | VFR | 250° | 6 kt | 10000 meters | 17° | 62° | 8° | 46° | 55% | 1022 mb | 9 ft | |||
| 04-ספט | 08:00 | VFR | 300° | 4 kt | 10000 meters | 15° | 59° | 7° | 44° | 59% | 1022 mb | -231 ft | |||
| 04-ספט | 07:00 | VFR | Calm | 10000 meters | 11° | 51° | 8° | 46° | 82% | 1021 mb | -681 ft | ||||
| 04-ספט | 06:00 | VFR | 310° | 5 kt | Few |
5,100 |
10000 meters | 10° | 50° | 7° | 44° | 82% | 1021 mb | -801 ft |
כניסה לאתר
| אין תמיכה בדפדפן שלך. שדרג את הדפדפן שלך |
